#timestamp,LO_Frequency,Hit,StdDev 
1635660015.1,286046999.6,N
1635660035.9,286046998.5,N
1635660055.7,286046998.7,N
1635660075.5,286046998.9,N
1635660095.4,286047001.2,N
1635660115.2,286047000.4,N
1635660135.1,286046998.2,N
1635660136.0,286046998.2,N
1635660155.8,286046999.6,N
1635660175.6,286046999.0,N
1635660195.5,286046998.9,N
1635660215.3,286047000.4,N
1635660235.1,286047001.1,N
1635660255.9,286046998.2,N
1635660275.7,286046999.8,N
1635660295.6,286047000.1,N
1635660315.4,286046998.5,N
1635660335.2,286046998.1,N
1635660355.1,286047002.8,N
1635660356.0,286047002.8,N
1635660375.8,286047004.3,Y
1635660395.7,286047002.2,P
1635660415.5,286047004.3,P
1635660435.3,286047004.4,N
1635660455.2,286047001.8,N
1635660475.9,286047002.0,N
1635660495.7,286047001.5,N
1635660515.6,286046998.1,N
1635660535.4,286046999.8,N
1635660555.3,286047003.5,N
1635660575.1,286047003.9,N
1635660576.0,286047003.9,N
1635660595.8,286047002.5,N
1635660615.7,286047001.7,N
1635660635.5,286047004.0,N
1635660655.3,286046999.8,N
1635660675.2,286047002.8,N
1635660695.0,286047004.1,N
1635660695.9,286047004.1,N
1635660715.8,286047003.4,N
1635660735.6,286047004.1,N
1635660755.4,286047003.7,N
1635660775.3,286047004.1,N
1635660795.1,286047003.3,N
1635660815.8,286047004.1,N
1635660835.7,286047003.6,N
1635660855.5,286047005.5,Y
1635660875.4,286047001.7,P
1635660895.2,286047006.8,P
1635660915.0,286047005.0,N
1635660915.9,286047005.0,N
1635660935.8,286047006.0,Y
1635660955.6,286046998.5,P
1635660975.4,286046996.6,N
1635660995.3,286046996.5,N
1635661015.1,286046995.3,N
1635661035.9,286046995.3,N
1635661055.7,286046997.4,N
1635661075.5,286046999.4,N
1635661095.4,286046998.1,N
1635661115.2,286046998.1,N
1635661135.0,286046999.6,N
1635661135.9,286046999.6,N
1635661155.8,286046997.9,N
1635661175.6,286046997.0,N
1635661195.5,286046997.8,N
1635661215.3,286046996.7,N
1635661235.1,286046999.9,N
1635661255.9,286046997.0,N
1635661275.7,286046997.5,N
1635661295.5,286046995.0,N
1635661315.4,286046994.9,N
1635661335.2,286046993.7,Y
1635661355.1,286046996.7,P
1635661356.0,286046996.7,P
1635661375.8,286046998.9,N
1635661395.6,286046998.9,N
1635661415.5,286046999.8,N
1635661435.3,286046999.7,N
1635661455.2,286046999.4,N
1635661475.9,286046996.6,N
1635661495.7,286046996.9,N
1635661515.6,286046999.5,N
1635661535.4,286047001.2,N
1635661555.2,286046998.2,N
1635661575.1,286047002.4,N
1635661576.0,286047002.4,N
1635661595.8,286046998.4,N
1635661615.7,286046996.5,N
1635661635.5,286046999.0,N
1635661655.3,286047002.7,N
1635661675.2,286047002.3,N
1635661695.0,286047002.0,N
1635661695.9,286047002.0,N
1635661715.8,286047004.1,N
1635661735.6,286047003.0,N
1635661755.4,286047005.6,N
1635661775.3,286047001.3,N
1635661795.1,286047003.8,N
1635661815.9,286047005.4,N
1635661835.7,286047004.5,N
1635661855.5,286047005.4,N
1635661875.4,286047003.6,N
1635661895.2,286047003.4,N
1635661915.0,286047005.6,N
1635661916.0,286047005.6,N
1635661935.8,286047003.9,N
1635661955.6,286047003.4,N
1635661975.5,286047002.9,N
1635661995.3,286047002.9,N
1635662015.1,286047004.4,N
1635662035.9,286047000.4,N
1635662055.7,286047000.0,N
1635662075.6,286047000.3,N
1635662095.4,286047002.3,N
1635662115.2,286047000.5,N
1635662135.1,286047000.9,N
1635662136.0,286047000.9,N
1635662155.8,286046998.5,N
1635662175.6,286046997.0,N
1635662195.5,286046998.3,N
1635662215.3,286047002.4,N
1635662235.2,286047001.4,N
1635662255.9,286047001.4,N
1635662275.7,286047000.6,N
1635662295.6,286047002.4,N
1635662315.4,286047001.7,N
1635662335.2,286047003.4,N
1635662355.1,286047004.1,N
1635662356.0,286047004.1,N
1635662375.8,286047001.3,N
1635662395.7,286047001.8,N
1635662415.5,286047004.2,N
1635662435.3,286047003.1,N
1635662455.2,286047003.6,N
1635662475.0,286047003.6,N
1635662475.9,286047003.6,N
1635662495.8,286047004.9,N
1635662515.6,286047004.6,N
1635662535.4,286047004.9,N
1635662555.3,286047004.6,N
1635662575.1,286047003.2,N
1635662595.8,286047004.9,N
1635662615.7,286047009.0,Y
1635662665.6,286047003.9,E
1635662675.5,286047000.1,N
1635662695.3,286046998.4,P
1635662715.2,286046996.9,P
1635662735.9,286046995.7,Y
1635662755.7,286046996.2,P
1635662775.6,286046999.6,N
1635662795.4,286047001.2,N
1635662815.2,286046998.2,N
1635662835.1,286046999.6,N
1635662836.0,286046999.6,N
1635662855.8,286046998.4,N
1635662875.7,286046998.1,N
1635662895.5,286046996.6,N
1635662915.3,286046998.4,N
1635662935.2,286046999.7,N
1635662955.0,286047001.2,N
1635662955.9,286047001.2,N
1635662975.7,286047002.7,N
1635662995.6,286047000.1,N
1635663015.4,286047002.2,N
1635663035.3,286047000.4,N
1635663055.1,286047001.2,N
1635663056.0,286047001.2,N
1635663075.8,286047002.1,N
1635663095.7,286047002.0,N
1635663115.5,286047001.5,N
1635663135.3,286047002.4,N
1635663155.2,286047000.9,N
1635663175.0,286046998.9,N
1635663175.9,286046998.9,N
1635663195.8,286046998.5,N
1635663215.6,286047000.3,N
1635663235.4,286047001.6,N
1635663255.3,286047004.3,N
1635663275.1,286047004.4,N
1635663295.9,286047002.1,N
1635663315.7,286047004.0,N
1635663335.5,286047001.4,N
1635663355.4,286047004.4,N
1635663375.2,286047004.1,N
1635663395.0,286047005.3,N
1635663395.9,286047005.3,N
1635663415.8,286047005.3,N
1635663435.6,286047004.7,N
1635663455.5,286047005.2,N
1635663475.3,286047003.0,N
1635663495.1,286047004.4,N
1635663515.9,286047004.1,N
1635663535.7,286047001.4,N
1635663555.5,286046999.8,N
1635663575.4,286047001.8,N
1635663595.2,286047003.9,N
